Barrow, AK

10:02 PM AKDT on April 23, 2017 (GMT -0800)
Wiley Post-Will Rogers Memorial

Weather History for PABR - February, 2014

Change the Weather History Date:

Tuesday, February 4, 2014

  Actual Average Record
Temperature  
Mean Temperature 11 °F -14 °F  
Max Temperature 17 °F -8 °F 36 °F (1982)
Min Temperature 4 °F -20 °F -51 °F (2006)
Degree Days  
Heating Degree Days 54 79  
Month to date heating degree days 217 316  
Since 1 July heating degree days 9870 10955  
Cooling Degree Days 0 0  
Month to date cooling degree days 0 0  
Year to date cooling degree days 0 0  
Moisture  
Dew Point 8 °F    
Average Humidity 0    
Maximum Humidity 0    
Minimum Humidity 0    
Precipitation  
Precipitation T in 0.01 in 0.10 in (1950)
Month to date precipitation T 0.02  
Year to date precipitation 0.18 0.15  
Snow  
Snow T in 0.10 in 1.00 in (1950)
Month to date snowfall T 0.4  
Since 1 July snowfall 40.4 26.8  
Snow Depth 8.00 in    
Sea Level Pressure  
Sea Level Pressure 30.56 in    
Wind  
Wind Speed 14 mph (ESE)    
Max Wind Speed 26 mph    
Max Gust Speed 31 mph    
Visibility 5 miles    
Events Fog , Rain , Snow    
T = Trace of Precipitation, MM = Missing Value Source: NWS Daily Summary

Daily Weather History Graph

Daily Weather History Graph

Search for Another Location

Airport or City:

Trip Planner

Search our weather history database for the weather conditions in past years. The results will help you decide how hot, cold, wet, or windy it might be!

Date:

Astronomy

Feb. 04, 2014 Rise Set
Actual Time 11:14 AM AKST 4:08 PM AKST
Civil Twilight 9:44 AM AKST 5:39 PM AKST
Nautical Twilight 8:21 AM AKST 7:01 PM AKST
Astronomical Twilight 7:06 AM AKST 8:17 PM AKST
Moon 9:51 AM AKST (2/4) 1:03 AM AKST (2/4)
Length of Visible Light 7h 55m
Length of Day
4h 54m
Waxing Crescent, 30% of the Moon is Illuminated
Feb 4
Waxing Crescent
Feb 6
First Quarter
Feb 14
Full
Feb 22
Last Quarter
Feb 28
New

Hourly Weather History & Observations

Time (AKST) Temp. Windchill Dew Point Humidity Pressure Visibility Wind Dir Wind Speed Gust Speed Precip Events Conditions
12:10 AM 12.9 °F 2.6 °F 10.0 °F 88% 30.69 in 0.8 mi Variable 6.9 mph 17.3 mph N/A   Mist
12:46 AM 12.9 °F -3.9 °F 10.0 °F 88% 30.68 in 0.5 mi East 17.3 mph - N/A Fog Light Freezing Fog
12:53 AM 12.9 °F -4.4 °F 10.0 °F 88% 30.69 in 0.8 mi East 18.4 mph - N/A   Mist
1:30 AM 12.0 °F -5.6 °F 9.0 °F 88% 30.66 in 1.0 mi East 18.4 mph - N/A   Mist
1:38 AM 12.0 °F -6.0 °F 9.0 °F 88% 30.67 in 0.8 mi East 19.6 mph - 0.00 in Rain Light Freezing Rain
1:48 AM 12.2 °F -6.3 °F 8.6 °F 85% 30.66 in 1.0 mi East 20.7 mph - 0.00 in   Mist
1:53 AM 12.0 °F -5.1 °F 9.0 °F 88% 30.67 in 1.0 mi East 17.3 mph - 0.00 in   Mist
2:11 AM 12.0 °F -6.5 °F 9.0 °F 88% 30.66 in 0.8 mi East 20.7 mph - 0.00 in Rain Light Freezing Rain
2:20 AM 12.0 °F -6.0 °F 9.0 °F 88% 30.65 in 1.0 mi East 19.6 mph - 0.00 in   Mist
2:53 AM 12.0 °F -4.0 °F 9.0 °F 88% 30.66 in 1.0 mi East 15.0 mph - 0.01 in   Mist
3:09 AM 12.0 °F -5.1 °F 9.0 °F 88% 30.64 in 0.8 mi East 17.3 mph - N/A   Mist
3:22 AM 12.0 °F -6.5 °F 9.0 °F 88% 30.63 in 1.0 mi ENE 20.7 mph - N/A   Mist
3:53 AM 12.0 °F -6.5 °F 9.0 °F 88% 30.61 in 1.0 mi ENE 20.7 mph - N/A   Mist
3:56 AM 12.0 °F -7.3 °F 9.0 °F 88% 30.61 in 0.8 mi East 23.0 mph - 0.00 in Rain Light Freezing Rain
4:08 AM 12.0 °F -6.0 °F 9.0 °F 88% 30.60 in 1.0 mi ENE 19.6 mph - 0.00 in   Mist
4:50 AM 12.2 °F -6.7 °F 8.6 °F 85% 30.59 in 2.5 mi East 21.9 mph - N/A   Overcast
4:53 AM 12.0 °F -7.3 °F 9.0 °F 88% 30.59 in 2.5 mi East 23.0 mph - N/A   Overcast
5:00 AM 12.0 °F -5.6 °F 9.0 °F 88% 30.58 in 1.2 mi East 18.4 mph - N/A   Overcast
5:53 AM 12.9 °F -2.8 °F 10.0 °F 88% 30.56 in 1.5 mi East 15.0 mph - 0.00 in Snow Light Snow
6:10 AM 12.9 °F -4.4 °F 10.0 °F 88% 30.56 in 2.5 mi East 18.4 mph - 0.00 in Snow Light Snow
6:20 AM 12.9 °F -5.7 °F 10.0 °F 88% 30.55 in 1.2 mi East 21.9 mph - 0.00 in Snow Light Snow
6:39 AM 12.9 °F -5.7 °F 10.0 °F 88% 30.54 in 0.8 mi East 21.9 mph - 0.00 in Snow Light Snow
6:59 AM 12.9 °F -5.7 °F 10.9 °F 92% 30.53 in 1.2 mi East 21.9 mph - 0.00 in Snow Light Snow
7:18 AM 12.0 °F -6.9 °F 9.0 °F 88% 30.53 in 3.0 mi ESE 21.9 mph - 0.00 in Snow Light Snow
7:44 AM 10.0 °F -9.5 °F 7.0 °F 87% 30.54 in 7.0 mi ESE 21.9 mph - 0.00 in   Mostly Cloudy
7:53 AM 9.0 °F -9.5 °F 5.0 °F 84% 30.53 in 10.0 mi ESE 18.4 mph - 0.00 in   Scattered Clouds
8:53 AM 6.1 °F -15.7 °F 1.9 °F 83% 30.52 in 9.0 mi ESE 24.2 mph - 0.00 in   Mostly Cloudy
9:53 AM 3.9 °F -17.1 °F -0.0 °F 84% 30.51 in 10.0 mi ESE 20.7 mph - 0.00 in   Mostly Cloudy
10:53 AM 3.9 °F -16.1 °F -0.0 °F 84% 30.50 in 10.0 mi SE 18.4 mph - N/A   Mostly Cloudy
11:53 AM 3.9 °F -15.0 °F -0.0 °F 84% 30.49 in 10.0 mi SE 16.1 mph - N/A   Mostly Cloudy
12:53 PM 6.1 °F -10.9 °F 1.0 °F 80% 30.49 in 10.0 mi SSE 13.8 mph - N/A   Overcast
1:53 PM 9.0 °F -7.9 °F 3.9 °F 80% 30.48 in 10.0 mi South 15.0 mph - N/A   Overcast
2:53 PM 10.0 °F -4.5 °F 6.1 °F 84% 30.49 in 10.0 mi SSW 11.5 mph - N/A   Overcast
3:53 PM 9.0 °F -3.2 °F 6.1 °F 88% 30.48 in 10.0 mi South 8.1 mph - N/A   Overcast
4:53 PM 7.0 °F -7.5 °F 3.0 °F 84% 30.48 in 10.0 mi South 10.4 mph - N/A   Mostly Cloudy
5:53 PM 6.1 °F -9.5 °F 1.9 °F 83% 30.48 in 10.0 mi South 11.5 mph - N/A   Mostly Cloudy
6:53 PM 7.0 °F -6.6 °F 1.9 °F 80% 30.48 in 10.0 mi South 9.2 mph - N/A   Partly Cloudy
7:53 PM 12.9 °F -0.2 °F 9.0 °F 84% 30.47 in 10.0 mi South 10.4 mph - N/A   Overcast
8:53 PM 16.0 °F 4.4 °F 12.0 °F 84% 30.47 in 10.0 mi South 9.2 mph - N/A   Overcast
9:53 PM 16.0 °F 6.3 °F 12.0 °F 84% 30.45 in 10.0 mi SE 6.9 mph - N/A   Overcast
10:53 PM 16.0 °F 6.3 °F 12.0 °F 84% 30.45 in 10.0 mi SSE 6.9 mph - N/A   Overcast
11:53 PM 16.0 °F 7.4 °F 12.0 °F 84% 30.43 in 10.0 mi SE 5.8 mph - N/A   Overcast